• In Hungary
  • List of Countries
  • For 7 days
  • Water Temperature
  • Satellite Maps
  • Weather Map
  • News
  • Weather Widgets
  • user-avatar
    Login

    Hourly Weather Babaojo

    Today, 25 May, Friday

    Time Temperature Precipitation Wind Pressure Humidity
    00:00 +27°C° 0.7 mm 1 mps 761 mmHg 94%
    01:00 +27°C° 0.7 mm 1 mps 761 mmHg 94%
    02:00 +27°C° 0.3 mm 1 mps 760 mmHg 94%
    03:00 +26°C° 0.3 mm 1 mps 760 mmHg 94%
    04:00 +26°C° 0.3 mm 1 mps 760 mmHg 94%
    05:00 +26°C° 0.2 mm 1 mps 760 mmHg 94%
    06:00 +27°C° 0.2 mm 1 mps 760 mmHg 94%
    07:00 +27°C° 0.2 mm 1 mps 760 mmHg 93%
    08:00 +27°C° 0.1 mm 1 mps 760 mmHg 91%
    09:00 +28°C° 0.1 mm 1 mps 761 mmHg 88%
    10:00 +29°C° 0.1 mm 1 mps 761 mmHg 85%
    11:00 +30°C° 0.2 mm 1 mps 760 mmHg 83%
    12:00 +30°C° 0.2 mm 1 mps 760 mmHg 82%
    13:00 +31°C° 0.2 mm 1 mps 759 mmHg 80%
    14:00 +31°C° 0.7 mm 1 mps 759 mmHg 80%
    15:00 +31°C° 0.7 mm 1 mps 758 mmHg 80%
    16:00 +31°C° 0.7 mm 1 mps 757 mmHg 80%
    17:00 +30°C° 2 mm 1 mps 758 mmHg 83%
    18:00 +29°C° 2 mm 1 mps 758 mmHg 87%
    19:00 +28°C° 2 mm 1 mps 759 mmHg 90%
    20:00 +27°C° 1.4 mm 1 mps 759 mmHg 91%
    21:00 +27°C° 1.4 mm 1 mps 760 mmHg 92%
    22:00 +26°C° 1.4 mm 1 mps 760 mmHg 93%
    23:00 +26°C° 0.7 mm 1 mps 760 mmHg 93%

    Tomorrow, 26 May, Saturday

    Time Temperature Precipitation Wind Pressure Humidity
    00:00 +26°C° 0.7 mm 1 mps 760 mmHg 94%
    01:00 +26°C° 0.7 mm 1 mps 760 mmHg 94%
    02:00 +25°C° 0.3 mm 1 mps 760 mmHg 94%
    03:00 +25°C° 0.3 mm 1 mps 760 mmHg 94%
    04:00 +25°C° 0.3 mm 1 mps 759 mmHg 94%
    05:00 +25°C° 0.1 mm 1 mps 759 mmHg 94%
    06:00 +25°C° 0.1 mm 1 mps 760 mmHg 93%
    07:00 +25°C° 0.1 mm 1 mps 760 mmHg 93%
    08:00 +27°C° 0.1 mm 1 mps 760 mmHg 90%
    09:00 +28°C° 0.1 mm 1 mps 760 mmHg 86%
    10:00 +29°C° 0.1 mm 1 mps 760 mmHg 83%
    11:00 +29°C° 0.1 mm 1 mps 760 mmHg 81%
    12:00 +30°C° 0.1 mm 1 mps 759 mmHg 78%
    13:00 +31°C° 0.1 mm 1 mps 759 mmHg 76%
    14:00 +31°C° 0.5 mm 1 mps 758 mmHg 77%
    15:00 +31°C° 0.5 mm 1 mps 758 mmHg 77%
    16:00 +31°C° 0.5 mm 1 mps 757 mmHg 78%
    17:00 +30°C° 1.5 mm 1 mps 758 mmHg 82%
    18:00 +29°C° 1.5 mm 1 mps 758 mmHg 86%
    19:00 +28°C° 1.5 mm 1 mps 759 mmHg 90%
    20:00 +27°C° 1 mm 1 mps 759 mmHg 91%
    21:00 +27°C° 1 mm 1 mps 760 mmHg 92%
    22:00 +26°C° 1 mm 1 mps 760 mmHg 93%
    23:00 +26°C° 0.5 mm 1 mps 760 mmHg 93%

    Day after tomorrow, 27 May, Sunday

    Time Temperature Precipitation Wind Pressure Humidity
    00:00 +26°C° 0.5 mm 1 mps 760 mmHg 93%
    01:00 +25°C° 0.5 mm 1 mps 760 mmHg 94%
    02:00 +25°C° 0.4 mm 1 mps 760 mmHg 94%
    03:00 +25°C° 0.4 mm 1 mps 760 mmHg 94%
    04:00 +25°C° 0.4 mm 1 mps 759 mmHg 94%
    05:00 +25°C° 0.2 mm 1 mps 760 mmHg 94%
    06:00 +25°C° 0.2 mm 1 mps 760 mmHg 93%
    07:00 +25°C° 0.2 mm 1 mps 760 mmHg 93%
    08:00 +26°C° 0.1 mm 1 mps 760 mmHg 90%
    09:00 +27°C° 0.1 mm 1 mps 760 mmHg 88%
    10:00 +26°C° 0.1 mm 0 mps 761 mmHg 85%
    11:00 +27°C° 0.1 mm 0 mps 760 mmHg 83%
    12:00 +30°C° 0.1 mm 1 mps 760 mmHg 81%
    13:00 +31°C° 0.1 mm 1 mps 759 mmHg 78%
    14:00 +31°C° 0.2 mm 1 mps 759 mmHg 78%
    15:00 +31°C° 0.2 mm 1 mps 758 mmHg 78%
    16:00 +31°C° 0.2 mm 1 mps 757 mmHg 78%
    17:00 +30°C° 0.6 mm 1 mps 758 mmHg 83%
    18:00 +29°C° 0.6 mm 1 mps 758 mmHg 87%
    19:00 +28°C° 0.6 mm 1 mps 759 mmHg 91%
    20:00 +27°C° 0.8 mm 1 mps 760 mmHg 92%
    21:00 +27°C° 0.8 mm 1 mps 760 mmHg 92%
    22:00 +26°C° 0.8 mm 1 mps 761 mmHg 93%
    23:00 +26°C° 0.8 mm 1 mps 761 mmHg 94%

    28 May, Monday

    Time Temperature Precipitation Wind Pressure Humidity
    00:00 +26°C° 0.8 mm 1 mps 761 mmHg 94%
    01:00 +26°C° 0.8 mm 1 mps 761 mmHg 95%
    02:00 +26°C° 0.6 mm 1 mps 760 mmHg 95%
    03:00 +26°C° 0.6 mm 1 mps 760 mmHg 95%
    04:00 +26°C° 0.6 mm 1 mps 760 mmHg 95%
    05:00 +26°C° 0.3 mm 1 mps 760 mmHg 94%
    06:00 +26°C° 0.3 mm 1 mps 760 mmHg 94%
    07:00 +26°C° 0.3 mm 1 mps 760 mmHg 94%
    08:00 +27°C° 0.1 mm 1 mps 761 mmHg 91%
    09:00 +28°C° 0.1 mm 1 mps 761 mmHg 88%
    10:00 +29°C° 0.1 mm 1 mps 761 mmHg 86%
    11:00 +29°C° 0.3 mm 1 mps 761 mmHg 85%
    12:00 +30°C° 0.3 mm 1 mps 760 mmHg 83%
    13:00 +30°C° 0.3 mm 1 mps 760 mmHg 82%
    14:00 +29°C° 1.5 mm 1 mps 760 mmHg 85%
    15:00 +29°C° 1.5 mm 1 mps 759 mmHg 89%
    16:00 +28°C° 1.5 mm 1 mps 759 mmHg 92%
    17:00 +28°C° 0.9 mm 1 mps 759 mmHg 93%
    18:00 +27°C° 0.9 mm 1 mps 760 mmHg 94%
    19:00 +27°C° 0.9 mm 1 mps 760 mmHg 95%
    20:00 +26°C° 0.7 mm 1 mps 761 mmHg 95%
    21:00 +26°C° 0.7 mm 1 mps 762 mmHg 96%
    22:00 +26°C° 0.7 mm 1 mps 762 mmHg 97%
    23:00 +26°C° 1.2 mm 1 mps 762 mmHg 97%

    29 May, Tuesday

    Time Temperature Precipitation Wind Pressure Humidity
    00:00 +26°C° 1.2 mm 1 mps 762 mmHg 97%
    01:00 +26°C° 1.2 mm 1 mps 761 mmHg 97%
    02:00 +25°C° 1.2 mm 1 mps 761 mmHg 97%
    03:00 +25°C° 1.2 mm 1 mps 760 mmHg 97%
    04:00 +25°C° 1.2 mm 1 mps 760 mmHg 97%
    05:00 +25°C° 0.4 mm 1 mps 760 mmHg 96%
    06:00 +25°C° 0.4 mm 1 mps 761 mmHg 95%
    07:00 +25°C° 0.4 mm 1 mps 761 mmHg 95%
    08:00 +26°C° 0 mm 1 mps 761 mmHg 92%
    09:00 +27°C° 0 mm 1 mps 761 mmHg 90%
    10:00 +28°C° 0 mm 1 mps 761 mmHg 88%
    11:00 +29°C° 0.2 mm 1 mps 761 mmHg 83%
    12:00 +30°C° 0.2 mm 1 mps 760 mmHg 78%
    13:00 +32°C° 0.2 mm 1 mps 759 mmHg 73%
    14:00 +31°C° 0.2 mm 1 mps 759 mmHg 76%
    15:00 +30°C° 0.2 mm 1 mps 758 mmHg 80%
    16:00 +29°C° 0.2 mm 1 mps 758 mmHg 83%
    17:00 +29°C° 0.2 mm 1 mps 758 mmHg 84%
    18:00 +28°C° 0.2 mm 1 mps 758 mmHg 85%
    19:00 +28°C° 0.2 mm 1 mps 759 mmHg 86%
    20:00 +28°C° 0.2 mm 1 mps 759 mmHg 84%
    21:00 +28°C° 0.2 mm 1 mps 760 mmHg 82%
    22:00 +28°C° 0.2 mm 1 mps 761 mmHg 81%
    23:00 +27°C° 0.1 mm 1 mps 760 mmHg 80%

    30 May, Wednesday

    Time Temperature Precipitation Wind Pressure Humidity
    00:00 +27°C° 0.1 mm 1 mps 760 mmHg 80%
    01:00 +25°C° 0.1 mm 0 mps 759 mmHg 79%
    02:00 +25°C° 0.1 mm 0 mps 759 mmHg 80%
    03:00 +26°C° 0.1 mm 1 mps 759 mmHg 80%
    04:00 +26°C° 0.1 mm 1 mps 758 mmHg 81%
    05:00 +26°C° 0 mm 1 mps 759 mmHg 81%
    06:00 +24°C° 0 mm 0 mps 759 mmHg 82%
    07:00 +24°C° 0 mm 0 mps 759 mmHg 83%
    08:00 +26°C° 0 mm 0 mps 759 mmHg 78%
    09:00 +30°C° 0 mm 1 mps 759 mmHg 73%
    10:00 +31°C° 0 mm 1 mps 759 mmHg 68%
    11:00 +32°C° 0.1 mm 1 mps 759 mmHg 66%
    12:00 +33°C° 0.1 mm 1 mps 758 mmHg 64%
    13:00 +34°C° 0.1 mm 1 mps 758 mmHg 61%
    14:00 +34°C° 0.3 mm 1 mps 757 mmHg 63%
    15:00 +33°C° 0.3 mm 1 mps 757 mmHg 64%
    16:00 +33°C° 0.3 mm 1 mps 756 mmHg 66%
    17:00 +32°C° 0.3 mm 1 mps 757 mmHg 72%
    18:00 +30°C° 0.3 mm 1 mps 758 mmHg 78%
    19:00 +29°C° 0.3 mm 1 mps 758 mmHg 83%
    20:00 +28°C° 0.1 mm 1 mps 759 mmHg 86%
    21:00 +28°C° 0.1 mm 1 mps 759 mmHg 88%
    22:00 +27°C° 0.1 mm 1 mps 760 mmHg 91%
    23:00 +27°C° 0.1 mm 1 mps 760 mmHg 92%
    Show more